STARLINK-1193, 45100

Orbit data source: Space-Track

STARLINK-1193, 45100 is a payload satellite owned by SpaceX/Seattle (US) in LEO that was launched on Wed, 29 Jan 2020 UTC via an FALCON 9 launch vehicle from the Air Force Eastern Test Range (AFETR). Payload-class satellites include a variety of spacecraft equipped with specific instruments for various scientific and technological missions. These include communications satellites like Starlink; space stations such as the ISS; scientific satellites like the Hubble; Earth observation satellites from companies like Planet Labs, Umbra, and HawkEye 360; GPS; miniature CubeSats for education and research; and military/defense satellites.

Loading next visibility...
Identifier
45100, 2020-006BJ
Orbit
LEO
Country
Flag of USUS
Related business
Manufacturer
SpaceX/Seattle
Mission
Partially operational Commercial Communications
Bus & Motor
STARLINK, Unknown motor
Mass
260 kg wet, ~248 kg dry
Launch date (UTC)
2020-01-29 (6 years ago)
Launch vehicle
FALCON 9
Launch site
Air Force Eastern Test Range (AFETR)
Object type
Payload
Rocket body
Debris
Shape & HBR
Box + 1 Pan, 10.1 m
Radar Cross Section
13.562 m², Large (>1 m²)

Expand to show TLE details & history
Last TLE update: 1 week ago

TLE from 1 week ago
0 STARLINK-1193
1 45100U 20006BJ  26154.30965378  .00052015  00000-0  47379-3 0  9993
2 45100  53.0452 171.9516 0004415 330.7266  29.3501 15.67412490350638
Epoch: 2026-06-03T07:25Z
TLE epoch observation values (Epoch: 2026-06-03T07:25:54.086Z)
Latitude
-0.00006°
Longitude
168.70608°
Altitude
364.616 km
Speed
7.693 km/s
True Right ascension
11h 27m 48s
True Declination
0° 00' 00"
Sunlit
Object was in daylight at epoch
Visualization orbit readout
Latitude
Unknown
Longitude
Unknown
Altitude
Unknown
Speed
Unknown
Apparent Right ascension
Unknown
Apparent Declination
Unknown
Sunlit
N/A
Visualization observer readout
Local Sidereal Time
23:50:48
Azimuth
Unknown
Elevation
Unknown
Doppler factor
Unknown
Orbital elements
Apogee altitude
369.566 km
Perigee altitude
363.611 km
Semi-major axis
6,744.726 km
Eccentricity
0.00044
Inclination
53.0452°
RAAN
171.9516°
Arg. of periapsis
330.7266°
True anomaly
29.37491°
Mean anomaly
29.3501°
Eccentric anomaly
29.3625°
Mean motion
3.91829 °/min
Orbital period
91.88 mins
BSTAR
0.00047379
Loading maneuver chart data...
Computing Atmospheric mass density...

Documentation

Showing up to 5 results
|